Andres Vega

Olheiro-Chefe - Dorados
25 Set 2027
Sábado
Processo

Personalidade

Adaptabilidade (10) Ambição (1) Controvérsia (4) Lealdade (1) Pressão (2) Profissionalismo (4) Espírito Esportivo (14) Temperamento (20)

Perfil

Estilo de Treinamento Democrático
Licença Continental C
Determinação 9
Gestão de Pessoas 6
Motivação 5
Disciplina 6
Satisfação no Trabalho
100%
Fadiga
0%
Função Olheiro-Chefe
Salário 66.0K p/s
Contrato 14.03.2028

Desempenho

Comportamento Bom
Eficácia do Treinamento
26%
Desenvolvimento do Jogador
35%
Prevenção de Lesões
55%
Implementação Tática
25%

Eventos Recentes

Participou de uma reunião de recrutamento agora
Recomendou um alvo de transferência agora
Recomendou um alvo de transferência agora
Participou de uma reunião de recrutamento 7d atrás
Recomendou um alvo de transferência 7d atrás
Recomendou um alvo de transferência 7d atrás
Participou de uma reunião de recrutamento 7d atrás
Participou de uma reunião de recrutamento 7d atrás

Monitorando agora

180
Jogador Clube Status Habilidade Confiança Observado Última observação Último voto
Jorge Alberto Sánchez Veracruz Ativo 107 / 101 44% 1 09.08.2027 -
Lamine Cissé Peterborough United Ativo 105 / 129 40% 5 07.06.2027 -
Jon Bautista Eibar Ativo 139 / 137 40% 3 07.06.2027 -
Caio Vidal FC Copenhagen Ativo 128 / 129 63% 1 01.06.2027 Aprovar
Fabrizio Cavegn Bristol Rovers Ativo 90 / 116 40% 1 30.05.2027 -
Santiago Sanchez Santa Fe Ativo 125 / 134 40% 1 30.05.2027 -
Mathias Jørgensen Blackburn Rovers Ativo 140 / 127 40% 3 29.05.2027 -
Jorge Delgado Cultural Leonesa Ativo 96 / 99 40% 1 29.05.2027 -
Abu Kamara Portsmouth Ativo 116 / 123 40% 2 28.05.2027 -
Chupete Málaga Ativo 113 / 130 40% 5 28.05.2027 -
Javi Zarzo Gubbio Ativo 87 / 105 40% 1 27.05.2027 -
Ezequiel Ponce Elche Ativo 144 / 120 40% 1 27.05.2027 -
Oli McBurnie Hull City Ativo 134 / 122 40% 3 26.05.2027 -
Adam Jakobsen Castellón Ativo 126 / 113 40% 3 25.05.2027 -
Niall Ennis Blackpool Ativo 123 / 112 40% 2 24.05.2027 -
Samuele Angori Pisa Ativo 133 / 140 40% 1 24.05.2027 -
Manu Lama Granada Ativo 109 / 126 40% 1 24.05.2027 -
Kyle Wootton Stockport County Ativo 137 / 125 40% 4 22.05.2027 -
Tyreece Campbell Charlton Athletic Ativo 118 / 124 40% 3 21.05.2027 -
Job Ochieng Real Sociedad Ativo 95 / 102 40% 1 21.05.2027 -
Moussa Diakité Cádiz Ativo 112 / 127 40% 1 20.05.2027 -
Antonio Pacheco Albacete Ativo 146 / 127 40% 1 20.05.2027 -
Aidomo Emakhu Oxford United Ativo 135 / 131 40% 1 20.05.2027 -
Giorgi Kvernadze Frosinone Ativo 119 / 133 40% 2 19.05.2027 -
Uriel Antuna Pumas UNAM Ativo 125 / 128 40% 2 19.05.2027 -
Alemão Rayo Vallecano Ativo 143 / 124 40% 2 17.05.2027 -
Agustín Hausch Caracas Ativo 117 / 125 40% 1 16.05.2027 -
Antony Medrano Giresunspor Ativo 83 / 103 40% 1 14.05.2027 -
Xavier Biscayzacú Sporting CP Ativo 136 / 138 40% 7 13.05.2027 Observar
Diego Pampín Granada Ativo 114 / 113 40% 2 13.05.2027 -
Federico Bonini Almería Ativo 116 / 124 40% 1 13.05.2027 -
Elijah Adebayo Luton Town Ativo 126 / 130 40% 3 10.05.2027 -
Harvey Blair Portsmouth Ativo 106 / 117 40% 1 10.05.2027 -
Anthony Oyono Frosinone Ativo 138 / 114 40% 1 07.05.2027 -
Juan Sebastián Andorra Ativo 94 / 112 40% 1 07.05.2027 -
Florián Monzón Atlas Ativo 136 / 127 40% 5 03.05.2027 Observar
García Pascual Cádiz Ativo 133 / 116 40% 2 02.05.2027 -
Mourad Tijuana Ativo 108 / 115 40% 2 01.05.2027 -
Aaron Collins Milton Keynes Dons Ativo 133 / 110 40% 1 28.04.2027 -
José Córdoba Norwich City Ativo 118 / 122 40% 1 28.04.2027 -
Joe Gelhardt Hull City Ativo 118 / 121 40% 1 26.04.2027 -
Malik Mothersille Stockport County Ativo 130 / 114 40% 1 26.04.2027 -
Yousef Salech Cardiff City Ativo 149 / 117 40% 2 25.04.2027 -
Callum Doyle Wrexham Ativo 133 / 124 40% 2 22.04.2027 -
Welington Southampton Ativo 112 / 122 40% 1 19.04.2027 -
Pau Casadesús Granada Ativo 114 / 123 40% 1 19.04.2027 -
Matías Contrera Northampton Town Ativo 112 / 109 40% 2 18.04.2027 -
Josh Coburn Millwall Ativo 112 / 110 40% 1 15.04.2027 -
Yusi Alavés Ativo 131 / 138 40% 1 15.04.2027 -
Unai Vencedor Burgos Ativo 147 / 140 40% 1 15.04.2027 -
Alfie Doughty Millwall Ativo 123 / 134 40% 2 14.04.2027 -
Jacques Ekomié Wrexham Ativo 119 / 123 40% 2 13.04.2027 -
Lewis Gibson Preston Ativo 136 / 136 40% 1 13.04.2027 -
Miguel Rodríguez Alavés Ativo 137 / 145 40% 1 10.04.2027 -
Max Johnston Derby County Ativo 146 / 131 40% 2 09.04.2027 -
Kevin Palacios Santos Laguna Ativo 105 / 112 40% 1 09.04.2027 -
Guille Rosas Gijón Ativo 156 / 129 40% 1 07.04.2027 -
Marc Aguado Elche Ativo 120 / 130 40% 1 07.04.2027 -
Adam Idah Swansea City Ativo 110 / 127 40% 1 02.04.2027 -
John Yeboah Venezia Ativo 127 / 119 40% 1 01.04.2027 -
Sam Greenwood Bristol City Ativo 134 / 127 40% 1 31.03.2027 -
Richard Koné Queens Park Rangers Ativo 146 / 123 40% 1 31.03.2027 -
Juninho Pumas UNAM Ativo 124 / 121 40% 3 25.03.2027 -
Christian Saydee Wigan Athletic Ativo 126 / 108 40% 1 24.03.2027 -
Bayron Duarte Queretaro Ativo 126 / 114 40% 2 23.03.2027 -
Harry Clarke Preston Ativo 121 / 116 40% 1 23.03.2027 -
Mohamed Bamba FC Lorient Ativo 116 / 129 40% 1 23.03.2027 -
Jhojan Julio Queretaro Ativo 106 / 125 40% 2 22.03.2027 -
Leandro Godoy CSKA Sofia Ativo 117 / 126 40% 1 22.03.2027 -
Zeki Amdouni Burnley Ativo 122 / 142 40% 1 20.03.2027 -
Leandro Suhr Piast Ativo 139 / 105 40% 1 19.03.2027 -
Cameron Archer Southampton Ativo 122 / 132 40% 1 18.03.2027 -
Vinícius Lopes Santa Clara Ativo 119 / 120 40% 1 16.03.2027 -
Pedro Vite Pumas UNAM Ativo 125 / 132 40% 4 14.03.2027 -
Bosun Lawal Stoke City Ativo 122 / 119 40% 1 14.03.2027 -
Mauro Valiente Chiapas Ativo 117 / 104 40% 1 14.03.2027 -
Lucas Di Yorio Santos Laguna Ativo 113 / 115 40% 1 13.03.2027 -
Pablo Fernández Leiria Ativo 113 / 112 40% 1 09.03.2027 -
Álex Valle Como Ativo 156 / 146 40% 2 08.03.2027 -
Tyrese Campbell Sheffield United Ativo 103 / 133 40% 1 08.03.2027 -
Aldo López Santos Laguna Ativo 104 / 123 40% 1 05.03.2027 -
Rodrigo Pinheiro Famalicao Ativo 137 / 122 40% 1 05.03.2027 -
Mohammed Bouldini Académico de Viseu Ativo 140 / 123 40% 1 03.03.2027 -
Duk Atlas Ativo 132 / 107 40% 1 02.03.2027 -
Santiago Simón Toluca Ativo 109 / 118 40% 3 01.03.2027 -
Isma Ruiz Córdoba Ativo 118 / 124 40% 1 01.03.2027 -
Bradley Fink Wycombe Wanderers Ativo 84 / 107 40% 1 01.03.2027 -
Kayne Ramsay Charlton Athletic Ativo 135 / 131 40% 2 27.02.2027 -
Oliver Skipp Leicester City Ativo 150 / 132 40% 3 26.02.2027 -
Bruno Amione Santos Laguna Ativo 130 / 113 40% 1 23.02.2027 -
Sebastián Santos Leon Ativo 100 / 123 40% 1 20.02.2027 -
Alejandro Gómez Tijuana Ativo 116 / 116 40% 1 20.02.2027 -
Tommy St. Jago KV Mechelen Ativo 120 / 110 40% 1 19.02.2027 -
Toby Collyer West Bromwich Albion Ativo 133 / 131 40% 1 17.02.2027 -
Idris El Mizouni Leyton Orient Ativo 131 / 126 40% 1 15.02.2027 -
Aarón Mejía Tijuana Ativo 135 / 116 40% 1 13.02.2027 -
Kane Wilson Milton Keynes Dons Ativo 114 / 103 40% 1 13.02.2027 -
Bruno Méndez Toluca Ativo 147 / 138 40% 1 12.02.2027 -
Imrân Louza Watford Ativo 134 / 120 40% 1 11.02.2027 -
Bobby Thomas Coventry City Ativo 157 / 135 40% 1 10.02.2027 -
Japhet Tanganga Sheffield United Ativo 143 / 138 40% 1 10.02.2027 -
Alejandro Pozo Ipswich Town Ativo 131 / 125 40% 1 07.02.2027 -
Lee Buchanan Sheffield Wednesday Ativo 115 / 121 40% 1 05.02.2027 -
Luciano Juba Bahia Ativo 135 / 129 40% 1 02.02.2027 -
Juan María Alcedo Torreense Ativo 133 / 123 40% 1 02.02.2027 -
Isaiah Jones Luton Town Ativo 121 / 122 40% 1 06.01.2027 -
Amar Memić Juventude Ativo 127 / 128 62% 1 01.01.2027 Aprovar
Helinho Toluca Ativo 127 / 133 40% 3 30.12.2026 -
Franco Ibarra Rosario Central Ativo 122 / 134 40% 2 30.12.2026 -
Ethan Galbraith Swansea City Ativo 116 / 141 40% 1 29.12.2026 -
Jovon Makama Norwich City Ativo 147 / 126 40% 1 29.12.2026 Mais informações
Tomás O'Connor Gimnasia y Esgrima Ativo 112 / 128 40% 3 28.12.2026 -
Santiago Sala Güemes Ativo 110 / 113 40% 1 28.12.2026 -
Alejandro Piedrahita Deportivo Pereira Ativo 128 / 125 40% 3 23.12.2026 -
Manuel Mónaco Sarmiento Ativo 108 / 119 40% 2 23.12.2026 -
Jaminton Campaz Rosario Central Ativo 120 / 131 40% 4 21.12.2026 -
Diego Martinez La Equidad Ativo 115 / 120 40% 2 18.12.2026 -
Joaquín Gho Argentinos Juniors Ativo 129 / 129 40% 1 18.12.2026 -
Tommy Conway Middlesbrough Ativo 148 / 119 40% 1 15.12.2026 -
Thiago Calone All Boys Ativo 113 / 119 40% 2 12.12.2026 -
Jack McGlynn Stoke City Ativo 146 / 141 40% 3 12.12.2026 -
Santiago Martínez Godoy Cruz Ativo 115 / 114 40% 1 10.12.2026 -
Augusto Schott Talleres Ativo 135 / 128 40% 1 10.12.2026 -
Alex Luna Instituto Ativo 136 / 124 40% 4 06.12.2026 -
Felipe Peña Biafore Lanús Ativo 114 / 132 40% 3 03.12.2026 -
Ramiro Ruiz Rodríguez Atlético Tucumán Ativo 119 / 122 40% 4 02.12.2026 -
Tomás Galván River Plate Ativo 120 / 120 40% 3 01.12.2026 -
Juan Bisanz Huracán Ativo 118 / 132 40% 5 30.11.2026 -
Rumarn Burrell Queens Park Rangers Ativo 149 / 121 40% 1 30.11.2026 -
Manuel Duarte Barracas Central Ativo 120 / 117 40% 2 29.11.2026 -
Matías Fernández Independiente Rivadavia Ativo 135 / 127 40% 3 29.11.2026 -
Alexis Steimbach Gimnasia La Plata Ativo 124 / 126 40% 1 28.11.2026 -
Ramiro Hernandes Belgrano Ativo 106 / 123 40% 1 28.11.2026 -
Alexander Díaz Deportivo Riestra Ativo 108 / 112 40% 3 27.11.2026 -
Stefano Moreyra Independiente Rivadavia Ativo 128 / 125 40% 1 26.11.2026 -
Ismael Cortez Gimnasia y Esgrima Ativo 109 / 116 40% 1 23.11.2026 -
Siro Rosané Estudiantes Ativo 106 / 117 40% 2 19.11.2026 -
Yuber Quiñónes Deportivo Pereira Ativo 124 / 112 40% 1 19.11.2026 -
Pedro Ramírez Deportivo Riestra Ativo 112 / 118 40% 1 18.11.2026 -
Leandro Lozano Boca Juniors Ativo 131 / 124 40% 2 16.11.2026 -
Alan Lescano Argentinos Juniors Ativo 126 / 131 40% 1 16.11.2026 -
Julián Palacios Unión de Santa Fe Ativo 120 / 122 40% 2 14.11.2026 -
Santiago González Tigre Ativo 128 / 128 40% 2 13.11.2026 -
William Hurtado Envigado Ativo 95 / 115 40% 1 13.11.2026 -
Alex Vigo Independiente Rivadavia Ativo 122 / 117 40% 2 12.11.2026 -
Mariano Bracamonte Deportivo Riestra Ativo 126 / 111 40% 1 12.11.2026 -
Valentino Acuña Newell's Old Boys Ativo 104 / 114 40% 1 07.11.2026 -
Franco Fagúndez Estudiantes Ativo 106 / 118 40% 1 05.11.2026 -
Tomás Silva Platense Ativo 132 / 119 40% 2 03.11.2026 -
Aarón Molinas Defensa y Justicia Ativo 127 / 126 40% 2 03.11.2026 -
Federico Versaci Talleres Ativo 112 / 114 40% 1 01.11.2026 -
Juan Manuel Zapata Envigado Ativo 122 / 116 40% 1 30.10.2026 -
Jorge Ruvalcaba New York Red Bulls Ativo 110 / 116 40% 1 30.10.2026 -
Rodrigo González Mitre Ativo 117 / 119 40% 1 29.10.2026 -
Johan Martínez Deportivo Cali Ativo 108 / 116 40% 1 28.10.2026 -
Juan Esteban Ávalo Aguilas Doradas Ativo 99 / 104 40% 1 27.10.2026 -
David Veliz Güemes Ativo 106 / 111 40% 1 26.10.2026 -
Gastón Verón Argentinos Juniors Ativo 114 / 123 40% 1 25.10.2026 -
Franco Watson Lanús Ativo 112 / 123 40% 1 22.10.2026 -
César Ibáñez Huracán Ativo 115 / 122 40% 1 21.10.2026 -
Santiago Valenzuela Chaco For Ever Ativo 108 / 109 40% 1 20.10.2026 -
Ezequiel Bullaude Santos Laguna Ativo 127 / 125 40% 1 19.10.2026 -
Franco Zapiola Platense Ativo 127 / 119 40% 1 17.10.2026 -
Nicolás Mosca Atlanta Ativo 99 / 109 40% 1 17.10.2026 -
Federico Navarro Rosario Central Ativo 139 / 125 40% 1 14.10.2026 -
Renzo Reynaga Patronato Ativo 102 / 108 40% 1 12.10.2026 -
Iván Angulo Orlando City Ativo 114 / 123 40% 1 09.10.2026 -
Telasco Segovia Inter Miami CF Ativo 139 / 134 40% 1 05.10.2026 -
Tobías Reinhart Universidad de Chile Ativo 121 / 118 40% 1 11.09.2026 -
Thiago Ponce Rosario Central Ativo 97 / 97 40% 1 11.09.2026 -
Michael Vadulli Audax Italiano Ativo 105 / 113 40% 1 10.09.2026 -
Franco Torres Gimnasia La Plata Ativo 122 / 115 40% 1 10.09.2026 -
Martín Sarrafiore O'Higgins Ativo 120 / 116 40% 1 08.09.2026 -
Santiago Toloza O'Higgins Ativo 131 / 117 40% 1 08.09.2026 -
Ignacio Aliseda Cerro Porteno Ativo 114 / 132 40% 1 02.09.2026 -
Facundo Velazco San Marcos de Arica Ativo 90 / 108 40% 1 17.08.2026 -
Gabriel Otero Atletico Venezuela Ativo 124 / 107 40% 1 17.08.2026 -
Daniel Haces Puebla Ativo 69 / 75 41% 1 10.08.2026 -
Francisco González Metilli Belgrano Ativo 114 / 127 40% 1 01.08.2026 -
Rodrigo Ayala San Martín Ativo 106 / 105 40% 1 01.08.2026 -